weather.gov     
National Weather Service

Terminal Aerodrome Forecast
NWS Homepage
This page is being discontinued on March 12, 2014.
The same data is available at this site. Please update your bookmarks.
Thank you, and we apologize for the inconvenience.
Please send an email to SR-SRH.Webmaster@noaa.gov with any concerns.


Current Version
Previous Version:    01  02  03  04  05  06  07  08  09  10  11  12  13  14  15  16  17  18  19  20  21  22  23  24  25  26  27  28  29  30  
   31  32  33  34  35  
[Printable]
213
FTUS43 KDMX 251727
TAFALO
TAF
KALO 251727Z 2518/2618 17016G25KT P6SM BKN050 OVC150
     FM260000 17005KT P6SM FEW050
     FM260600 17003KT 4SM BR FEW050
     FM260900 VRB03KT 1SM BR SCT010 SCT250
     FM261300 05005KT P6SM SCT010 BKN100=


213
FTUS43 KDMX 251727
TAFALO
TAF
KALO 251727Z 2518/2618 17016G25KT P6SM BKN050 OVC150
     FM260000 17005KT P6SM FEW050
     FM260600 17003KT 4SM BR FEW050
     FM260900 VRB03KT 1SM BR SCT010 SCT250
     FM261300 05005KT P6SM SCT010 BKN100=




U.S. Dept. of Commerce
NOAA National Weather Service
1325 East West Highway
Silver Spring, MD 20910
E-mail: w-nws.webmaster@noaa.gov
Page last modified: May 16, 2007
NATIONAL WEATHER SERVICE: for Safety, for Work, for Fun - FOR LIFE